Location: Boone Canyon
(38.3180°N, 119.2504°W)
Time: 18:00:40
(UTC+00:00)

USA 32 - Pass Details

Date: 18 September 2020
Orbit: 778 x 782 km, 85.0° (Epoch: 27 September)

Event Time Altitude Azimuth Distance (km) Brightness Sun altitude
Rises 12:15:24 0° 358° (N) 3,272 7.5 -17.5°
Reaches altitude 10° 12:17:47 10° 1° (N) 2,341 6.7 -17.1°
Maximum altitude 12:23:01 68° 85° (E) 840 4.4 -16.1°
Drops below altitude 10° 12:28:13 10° 168° (SSE) 2,328 6.5 -15.1°
Sets 12:30:34 0° 171° (S) 3,252 7.2 -14.6°
